Flight Track Log - Related Links

Times and Time Zones

All times are in EDT time to prevent confusion due to time zone crossing. See the ASQ4252 flight status page for this flight to view local times or setup timezone preferences in your user account.

Time Position Orientation Groundspeed Altitude Reporting Facility
EDT Latitude Longitude Course Direction KTS MPH feet Rate Location/Type
Thu 11:05:59 AM 36.2353 -94.3039 351° North 184 212 35,000  Level Kansas City Center
Thu 11:07:03 AM 36.1942 -94.3464 220° Southwest 192 221 35,000 -10,880 Level Kansas City Center
Thu 11:08:29 AM 36.3542 -94.3725 353° North 332 382 7,800 -10,014 Descending Kansas City Center
Thu 11:09:00 AM 36.6126 -94.3709 345° North  Level FlightAware Approximate
Thu 11:09:31 AM 36.4300 -94.3822 354° North 279 321 10,300  Level Kansas City Center
Thu 11:10:00 AM 36.6986 -94.3930 351° North  Level FlightAware Approximate
Thu 11:10:35 AM 36.5192 -94.3953 353° North 301 346 11,100  Level Kansas City Center
Thu 11:11:00 AM 36.7853 -94.4104 351° North  Level FlightAware Approximate
Thu 11:11:35 AM 36.6228 -94.4100 353° North 340 391 12,300  Level Kansas City Center
Thu 11:12:39 AM 36.7308 -94.4206 356° North 378 435 14,000 1,694 Climbing Kansas City Center
Thu 11:13:39 AM 36.8336 -94.4058 North 377 434 15,800 1,659 Climbing Kansas City Center
Thu 11:14:42 AM 36.9064 -94.2933 51° Northeast 377 434 17,400 1,306 Climbing Kansas City Center
Thu 11:15:43 AM 36.9619 -94.1806 58° Northeast 380 437 18,500 1,220 Climbing Kansas City Center
Thu 11:16:45 AM 37.0158 -94.0653 60° Northeast 383 441 19,900 1,344 Climbing Kansas City Center
Thu 11:17:48 AM 37.0697 -93.9494 60° Northeast 384 442 21,300 1,512 Climbing Kansas City Center
Thu 11:18:48 AM 37.1347 -93.8111 59° Northeast 385 443 23,000 1,488 Climbing Kansas City Center
Thu 11:19:53 AM 37.1883 -93.6969 59° Northeast 383 441 24,400 1,238 Climbing Kansas City Center
Thu 11:20:54 AM 37.2422 -93.5817 60° Northeast 382 440 25,600 1,190 Climbing Kansas City Center
Thu 11:21:54 AM 37.2986 -93.4642 59° Northeast 392 451 26,800 1,161 Climbing Kansas City Center
Thu 11:22:58 AM 37.3528 -93.3444 60° Northeast 388 447 28,000 1,134 Climbing Kansas City Center
Thu 11:24:01 AM 37.4408 -93.2561 39° Northeast 407 468 29,200 1,161 Climbing Kansas City Center
Thu 11:25:02 AM 37.5314 -93.1731 36° Northeast 402 463 30,400 1,279 Climbing Kansas City Center
Thu 11:26:03 AM 37.6400 -93.0731 36° Northeast 401 461 31,800 1,210 Climbing Kansas City Center
Thu 11:27:06 AM 37.7311 -92.9889 36° Northeast 403 464 32,900 1,016 Climbing Kansas City Center
Thu 11:28:07 AM 37.8228 -92.9014 37° Northeast 405 466 33,900 968 Climbing Kansas City Center
Thu 11:29:10 AM 37.9169 -92.8131 36° Northeast 415 478 34,900 532 Climbing Kansas City Center
Thu 11:30:11 AM 38.0089 -92.7258 37° Northeast 426 490 35,000 48 Climbing Kansas City Center
Thu 11:31:15 AM 38.1100 -92.6314 36° Northeast 447 514 35,000  Level Kansas City Center
Thu 11:32:15 AM 38.2239 -92.5253 36° Northeast 466 536 35,000  Level Kansas City Center
Thu 11:33:18 AM 38.3308 -92.4225 37° Northeast 474 545 35,000  Level Kansas City Center
Thu 11:34:22 AM 38.4611 -92.2978 37° Northeast 481 554 35,000  Level Kansas City Center
Thu 11:35:23 AM 38.5681 -92.1944 37° Northeast 480 552 35,000  Level Kansas City Center
Thu 11:36:24 AM 38.6739 -92.0944 36° Northeast 474 545 35,000  Level Kansas City Center
Thu 11:37:27 AM 38.7806 -91.9919 37° Northeast 476 548 35,000  Level Kansas City Center
Thu 11:38:29 AM 38.8844 -91.8889 38° Northeast 473 544 35,000  Level Kansas City Center
Thu 11:39:30 AM 38.9908 -91.7872 37° Northeast 473 544 35,000  Level Kansas City Center
Thu 11:40:34 AM 39.1067 -91.6742 37° Northeast 478 550 35,000  Level Kansas City Center
Thu 11:41:34 AM 39.2131 -91.5708 37° Northeast 478 550 35,000  Level Kansas City Center
Thu 11:42:35 AM 39.3211 -91.4664 37° Northeast 482 555 35,000  Level Kansas City Center
Thu 11:43:38 AM 39.4272 -91.3597 38° Northeast 483 556 35,000  Level Kansas City Center
Thu 11:44:40 AM 39.5339 -91.2547 37° Northeast 482 555 35,000  Level Kansas City Center
Thu 11:45:43 AM 39.6611 -91.1281 37° Northeast 480 552 35,000 -381 Level Kansas City Center
Thu 11:46:46 AM 39.7603 -91.0297 37° Northeast 481 554 34,200 -976 Descending Kansas City Center
Thu 11:47:46 AM 39.8817 -90.9078 38° Northeast 483 556 33,000 -581 Descending Kansas City Center
Thu 11:48:50 AM 39.9869 -90.8025 37° Northeast 480 552 33,000  Level Kansas City Center
Thu 11:49:50 AM 40.0908 -90.6947 38° Northeast 477 549 33,000  Level Kansas City Center
Thu 11:50:54 AM 40.1958 -90.5897 37° Northeast 475 547 33,000  Level Kansas City Center
Thu 11:51:54 AM 40.2994 -90.4847 38° Northeast 473 544 33,000  Level Kansas City Center
Thu 11:52:58 AM 40.4017 -90.3769 39° Northeast 472 543 33,000  Level Kansas City Center
Thu 11:53:58 AM 40.5050 -90.2717 38° Northeast 469 540 33,000 -823 Level Kansas City Center
Thu 11:55:02 AM 40.6250 -90.1483 38° Northeast 471 542 31,300 -1,548 Descending Kansas City Center
Thu 11:56:02 AM 40.7225 -90.0494 38° Northeast 456 525 29,800 -1,500 Descending Kansas City Center
Thu 11:57:06 AM 40.8378 -89.9322 38° Northeast 473 544 28,200 -1,658 Descending Kansas City Center
Thu 11:58:34 AM 40.9872 -89.7717 39° Northeast 478 550 25,600 -1,680 Descending Chicago Center
Thu 11:59:36 AM 41.0878 -89.6653 39° Northeast 474 545 24,000 -774 Descending Chicago Center
Thu 12:00:38 PM 41.1775 -89.5436 46° Northeast 465 535 24,000 -919 Level Chicago Center
Thu 12:01:40 PM 41.2489 -89.3669 62° Northeast 453 521 22,100 -2,226 Descending Chicago Center
Thu 12:02:42 PM 41.3047 -89.2286 62° Northeast 435 501 19,400 -2,516 Descending Chicago Center
Thu 12:03:44 PM 41.3578 -89.0981 62° Northeast 416 479 16,900 -2,565 Descending Chicago Center
Thu 12:04:46 PM 41.4086 -88.9669 63° Northeast 403 464 14,100 -2,565 Descending Chicago Center
Thu 12:05:48 PM 41.4583 -88.8419 62° Northeast 386 444 11,600 -1,500 Descending Chicago Center
Thu 12:06:50 PM 41.5150 -88.6992 62° Northeast 365 420 11,000 -290 Descending Chicago Center
Thu 12:07:52 PM 41.5625 -88.5789 62° Northeast 367 422 11,000  Level Chicago Center
Thu 12:08:54 PM 41.6131 -88.4586 61° Northeast 370 426 11,000 -242 Level Chicago Center
Thu 12:09:56 PM 41.6747 -88.3511 52° Northeast 366 421 10,500 -528 Descending Chicago Center
Thu 12:10:59 PM 41.7328 -88.2528 52° Northeast 335 386 9,900 -1,008 Descending Chicago Center
Thu 12:12:01 PM 41.7817 -88.1689 52° Northeast 288 331 8,400 -1,258 Descending Chicago Center
Thu 12:13:03 PM 41.8367 -88.0739 52° Northeast 268 308 7,300 -677 Descending Chicago Center
Thu 12:14:05 PM 41.8767 -88.0022 53° Northeast 243 280 7,000 -161 Descending Chicago Center
Thu 12:14:55 PM 41.8833 -87.9167 84° East 252 290 7,000  Level Chicago TRACON
Thu 12:16:09 PM 41.8842 -87.8225 89° East 242 278 7,000 -441 Level Chicago Center
Thu 12:17:11 PM 41.8836 -87.7300 90° East 245 282 6,000 -1,355 Descending Chicago Center
Thu 12:18:13 PM 41.9036 -87.6525 71° East 246 283 4,200 -1,742 Descending Chicago Center

Login

Don't have an account? Register now (free) for customized features, flight alerts, and more!